Location: Newark
(41.0400°S, 62.7845°W)
Time: 01:45:57
(UTC+00:00)

Transit 2A - Pass Details

Date: 06 December 2021
Orbit: 591 x 967 km, 66.7° (Epoch: 20 January)

Event Time Altitude Azimuth Distance (km) Brightness Sun altitude
Rises 23:51:15 0° 204° (SSW) 2,866 10.1 -3.8°
Reaches altitude 10° 23:53:37 10° 195° (SSW) 1,963 9.0 -4.1°
Maximum altitude 23:57:43 39° 125° (SE) 939 6.4 -4.8°
Drops below altitude 10° 00:01:59 10° 56° (NE) 2,037 7.5 -5.4°
Enters shadow 00:02:44 - 53° (NE) 2,321 7.8 -5.5°
Sets 00:04:28 0° 48° (NE) 2,988 - -5.8°
